Regional Weather Roundup
Issued by NWS

Home | Current Version | Previous Version | Graphics & Text | Print | Product List | Glossary On
Versions: 1 2 3 4 5 6 7 8 9 10 11 12 13 14 15 16 17 18 19 20 21 22 23 24 25 26 27 28 29 30 31 32 33 34 35 36 37 38 39 40 41 42 43 44 45 46 47 48 49 50
000
ASUS43 KFSD 030610
RWRSD

WEATHER ROUNDUP FOR SOUTH DAKOTA
NATIONAL WEATHER SERVICE SIOUX FALLS SD
100 AM CDT FRI JUL 03 2015

NOTE: "FAIR" INDICATES FEW OR NO CLOUDS BELOW 12,000 FEET WITH NO
SIGNIFICANT WEATHER AND/OR OBSTRUCTIONS TO VISIBILITY.


SDZ001>005-009-010-012>017-030700-
NORTHWEST AND NORTH CENTRAL SOUTH DAKOTA

CITY           SKY/WX    TMP DP  RH WIND       PRES   REMARKS
BUFFALO          N/A     65  59  81 CALM      30.02S
FAITH            N/A     68  57  68 E3        30.05R
MOBRIDGE       CLEAR     68  66  93 NW7       29.97S FOG
$$

SDZ012>016-024>037-041>051-057-063-072>074-030700-
SOUTHWEST AND SOUTH CENTRAL SOUTH DAKOTA

CITY           SKY/WX    TMP DP  RH WIND       PRES   REMARKS
RAPID CTY ARPT MOCLDY    62  58  86 NW6       30.10S
PIERRE         CLEAR     64  63  96 S5        29.99S
CUSTER         CLEAR     55  50  83 NW3       30.22S
ELLSWORTH AFB  CLOUDY    65  59  80 NW6       30.10R
PHILIP         CLEAR     63  61  93 CALM      30.03R
PINE RIDGE     CLEAR     61  57  87 CALM      30.10R
SPEARFISH      FAIR      59  55  88 SW7       30.15R
WINNER         FAIR      64  59  83 SE5       30.02R
$$

SDZ004>011-016>023-039-040-030700-
NORTHEAST SOUTH DAKOTA

CITY           SKY/WX    TMP DP  RH WIND       PRES   REMARKS
ABERDEEN       CLEAR     63  61  93 SW8       29.98S
WATERTOWN      CLEAR     58  54  86 SW6       30.01R
BROOKINGS      CLEAR     57  52  82 CALM      30.03S
SISSETON         N/A     59  55  87 S6        29.96S
$$

SDZ017-020-022-023-036>040-048>070-030700-
SOUTHEAST SOUTH DAKOTA

CITY           SKY/WX    TMP DP  RH WIND       PRES   REMARKS
SIOUX FALLS    CLEAR     56  55  97 CALM      30.01S FOG
HURON          CLEAR     61  58  90 S3        30.00R
CHAMBERLAIN    CLEAR     62  61  99 CALM      30.01S FOG
MITCHELL       CLEAR     61  58  90 CALM      30.01R
YANKTON        CLEAR     61  57  88 CALM      30.00R
$$

ABBREVIATIONS USED IN REMARKS
   TC - TEMPERATURE IN CELSIUS
  WCI - WIND CHILL INDEX
   HX - HEAT INDEX
  VSB - VISIBILITY




USA.gov is the U.S. government's official web portal to all federal, state and local government web resources and services.